Weather History for Elko, NV

Change the Weather History Date:

Sunday, January 20, 2013

  Actual Average Record
Temperature  
Mean Temperature 5 °F 25 °F  
Max Temperature 20 °F 36 °F 59 °F (1981)
Min Temperature -10 °F 14 °F -34 °F (1937)
Degree Days  
Heating Degree Days 60 40  
Month to date heating degree days 1135 800  
Since 1 July heating degree days 3583 3748  
Cooling Degree Days 0 0  
Month to date cooling degree days 0 0  
Year to date cooling degree days 0 0  
Moisture  
Dew Point -5 °F    
Average Humidity 74    
Maximum Humidity 91    
Minimum Humidity 56    
Precipitation  
Precipitation 0.00 in 0.04 in 0.65 in (1896)
Month to date precipitation 0.22 0.77  
Year to date precipitation 0.22 0.77  
Snow  
Snow 0.00 in 0.40 in 3.90 in (1957)
Month to date snowfall 3.1 7.2  
Since 1 July snowfall 27.0 22.8  
Snow Depth 8.00 in    
Sea Level Pressure  
Sea Level Pressure 30.70 in    
Wind  
Wind Speed 2 mph (East)    
Max Wind Speed 8 mph    
Max Gust Speed 9 mph    
Visibility 9 miles    
Events      
T = Trace of Precipitation, MM = Missing Value Source: NWS Daily Summary

Daily Weather History Graph

Daily Weather History Graph

Search for Another Location

Airport:

Trip Planner

Search our weather history database for the weather conditions in past years. The results will help you decide how hot, cold, wet, or windy it might be!

Date:

Astronomy

Jan. 20, 2013 Rise Set
Actual Time 7:02 AM PST 4:46 PM PST
Civil Twilight 6:32 AM PST 5:16 PM PST
Nautical Twilight 5:59 AM PST 5:49 PM PST
Astronomical Twilight 5:26 AM PST 6:22 PM PST
Moon 11:50 AM PST (1/20) 1:38 AM PST (1/20)
Length of Visible Light 10h 43m
Length of Day
9h 43m
Waxing Gibbous, 67% of the Moon is Illuminated
Jan 20
Waxing Gibbous
Jan 26
Full
Feb 3
Last Quarter
Feb 9
New
Feb 17
First Quarter

Hourly Weather History & Observations

Time (PST) Temp. Windchill Dew Point Humidity Pressure Visibility Wind Dir Wind Speed Gust Speed Precip Events Conditions
12:56 AM -4.0 °F -16.3 °F -8.0 °F 83% 30.73 in 10.0 mi East 5.8 mph - N/A   Clear
1:56 AM -5.1 °F -15.8 °F -9.0 °F 83% 30.73 in 10.0 mi East 4.6 mph - N/A   Clear
2:56 AM -6.0 °F -16.9 °F -9.9 °F 83% 30.72 in 10.0 mi ENE 4.6 mph - N/A   Clear
3:56 AM -7.1 °F -18.1 °F -11.0 °F 83% 30.73 in 10.0 mi East 4.6 mph - N/A   Clear
4:56 AM -7.1 °F -15.9 °F -11.9 °F 79% 30.76 in 10.0 mi ENE 3.5 mph - N/A   Clear
5:56 AM -9.0 °F -18.2 °F -13.0 °F 83% 30.78 in 10.0 mi East 3.5 mph - N/A   Clear
6:56 AM -9.9 °F -24.9 °F -14.1 °F 82% 30.81 in 10.0 mi ENE 6.9 mph - N/A   Clear
7:30 AM -9.4 °F -18.6 °F -11.2 °F 92% 30.49 in 2.5 mi ENE 3.5 mph - N/A   Scattered Clouds
7:39 AM -9.4 °F -18.6 °F -11.2 °F 92% 30.49 in 2.5 mi East 3.5 mph - N/A   Mostly Cloudy
7:46 AM -9.4 °F -18.6 °F -11.2 °F 92% 30.49 in 6.0 mi East 3.5 mph - N/A   Mostly Cloudy
7:56 AM -8.0 °F - -9.9 °F 91% 30.81 in 7.0 mi Calm Calm - N/A   Overcast
8:12 AM -7.6 °F -18.8 °F -9.4 °F 92% 30.50 in 6.0 mi East 4.6 mph - N/A   Overcast
8:47 AM -5.8 °F -16.7 °F -9.4 °F 84% 30.50 in 10.0 mi ENE 4.6 mph - N/A   Scattered Clouds
8:56 AM -4.0 °F -17.8 °F -8.0 °F 83% 30.83 in 10.0 mi East 6.9 mph - N/A   Clear
9:09 AM -4.0 °F -14.6 °F -7.6 °F 85% 30.51 in 5.0 mi ENE 4.6 mph - N/A   Partly Cloudy
9:56 AM -0.9 °F -8.9 °F -2.9 °F 91% 30.83 in 10.0 mi SE 3.5 mph - N/A   Clear
10:56 AM 3.9 °F -3.4 °F -0.9 °F 80% 30.78 in 10.0 mi ESE 3.5 mph - N/A   Clear
11:56 AM 9.0 °F - 1.9 °F 73% 30.76 in 10.0 mi Calm Calm - N/A   Clear
12:56 PM 14.0 °F - 5.0 °F 67% 30.71 in 10.0 mi Calm Calm - N/A   Clear
1:56 PM 16.0 °F - 6.1 °F 65% 30.69 in 10.0 mi Calm Calm - N/A   Clear
2:56 PM 19.9 °F - 7.0 °F 57% 30.68 in 10.0 mi Calm Calm - N/A   Clear
3:56 PM 18.0 °F - 7.0 °F 62% 30.68 in 10.0 mi Calm Calm - N/A   Clear
4:56 PM 10.9 °F - 3.0 °F 70% 30.71 in 10.0 mi Calm Calm - N/A   Clear
5:56 PM 9.0 °F - 1.9 °F 73% 30.73 in 10.0 mi Calm Calm - N/A   Clear
6:56 PM 7.0 °F - -0.0 °F 73% 30.74 in 10.0 mi Calm Calm - N/A   Clear
7:56 PM 7.0 °F - 1.9 °F 80% 30.74 in 10.0 mi Calm Calm - N/A   Clear
8:56 PM 1.0 °F -6.7 °F -4.0 °F 79% 30.76 in 10.0 mi ENE 3.5 mph - N/A   Clear
9:56 PM 3.0 °F - -0.9 °F 84% 30.75 in 10.0 mi Calm Calm - N/A   Clear
10:56 PM -2.0 °F - -5.1 °F 87% 30.76 in 10.0 mi Calm Calm - N/A   Clear
11:56 PM 1.0 °F -8.7 °F -2.9 °F 83% 30.71 in 10.0 mi ENE 4.6 mph - N/A   Clear